Home   Weather   Ojinaga   Past weeks

Flag for Mexico Past Weather in Ojinaga, Chihuahua, Mexico — Yesterday and Last 2 Weeks

Now
58 °F

Sunny.


Feels Like: 53 °F
Forecast: 36 / 70 °F
Wind: 29 mph from West

Location: Marfa Municipal Airport

Current Time: Jan 19, 2017 at 4:47:24 pm

Latest Report: Jan 19, 2017 at 3:56 pm


Visibility: 10 mi

Pressure: 29.81 "Hg (27.15 "Hg at 788m altitude)

Humidity: 23%

Dew Point: 20 °F

Location of OjinagaLocation

Past Weather in Ojinaga — Graph

°F

Ojinaga Temperature Yesterday

Maximum temperature yesterday: 58 °F (at 2:56 pm)
Minimum temperature yesterday: 31 °F (at 6:56 am)
Average temperature yesterday: 40 °F

High & Low Weather Summary for the Past Weeks

 TemperatureHumidityPressure
High78 °F (Jan 9, 2:56 pm)100% (Jan 14, 11:05 pm)30.63 "Hg (Jan 14, 11:05 pm)
Low13 °F (Jan 7, 1:56 am)10% (Jan 11, 1:56 pm)29.79 "Hg (Jan 15, 12:56 pm)
Average45 °F62%30.10 "Hg
* Reported Jan 4 2:56 pm — Jan 19 2:56 pm, Ojinaga, Weather by CustomWeather, © 2017

Note: Actual official high and low records may vary slightly from our data, if they occured in-between our weather recording intervals... More about our weather records

Advertising

Ojinaga Weather History for the Previous 24 Hours

Scroll right to see more
 ConditionsComfort  
Time TempWeatherWind HumidityBarometerVisibility
2:56 pm
Thu, Jan 19
58 °FSunny.20 mph27%29.82 "Hg10 mi
1:56 pm58 °FSunny.23 mph30%29.82 "Hg10 mi
12:56 pm57 °FSunny.31 mph32%29.84 "Hg10 mi
11:56 am56 °FSunny.29 mph36%29.88 "Hg10 mi
10:56 am55 °FSunny.28 mph35%29.92 "Hg10 mi
9:56 am52 °FSunny.25 mph45%29.97 "Hg10 mi
8:56 am49 °FSunny.12 mph52%29.98 "Hg10 mi
7:56 am40 °FSunny.8 mph77%29.97 "Hg10 mi
6:56 am32 °FSunny.8 mph85%29.96 "Hg10 mi
5:56 am30 °FClear.7 mph92%29.96 "Hg10 mi
4:56 am37 °FClear.9 mph79%29.90 "Hg10 mi
3:56 am33 °FClear.8 mph88%29.91 "Hg10 mi
2:56 am32 °FClear.7 mph92%29.94 "Hg10 mi
1:56 am37 °FClear.5 mph86%30.01 "Hg10 mi
12:56 am38 °FPartly cloudy.7 mph86%29.97 "Hg10 mi
11:56 pm
Wed, Jan 18
33 °FPartly cloudy.No wind85%30.01 "Hg10 mi
10:56 pm33 °FClear.8 mph88%30.03 "Hg10 mi
9:56 pm32 °FClear.6 mph85%30.07 "Hg10 mi
8:56 pm33 °FClear.5 mph85%30.09 "Hg10 mi
7:56 pm35 °FClear.No wind78%30.09 "Hg10 mi
6:56 pm42 °FClear.7 mph62%30.08 "Hg10 mi
5:56 pm43 °FClear.7 mph56%30.07 "Hg10 mi
4:56 pm53 °FSunny.12 mph35%30.02 "Hg10 mi
Weather by CustomWeather, © 2017

See weather overviewHow to use our weather pages